• In Switzerland
  • List of Countries
  • For 7 days
  • Water Temperature
  • Satellite Maps
  • Weather Map
  • Weather Widgets
  • user-avatar
    Login

    Hourly Weather Krasnodvorsk

    Today, 25 September, Tuesday

    Time Temperature Precipitation Wind Pressure Humidity
    00:00 +20°C° 0 mm 5 mps 757 mmHg 69%
    01:00 +20°C° 0 mm 5 mps 757 mmHg 72%
    02:00 +20°C° 0 mm 4 mps 757 mmHg 75%
    03:00 +20°C° 0 mm 4 mps 756 mmHg 78%
    04:00 +20°C° 0 mm 4 mps 756 mmHg 79%
    05:00 +20°C° 0 mm 5 mps 756 mmHg 80%
    06:00 +20°C° 0 mm 5 mps 756 mmHg 81%
    07:00 +20°C° 0.1 mm 5 mps 757 mmHg 79%
    08:00 +20°C° 0.1 mm 5 mps 757 mmHg 78%
    09:00 +20°C° 0.1 mm 6 mps 757 mmHg 76%
    10:00 +17°C° 0.1 mm 6 mps 758 mmHg 74%
    11:00 +16°C° 0.1 mm 6 mps 758 mmHg 73%
    12:00 +15°C° 0.1 mm 6 mps 759 mmHg 71%
    13:00 +15°C° 0.2 mm 5 mps 760 mmHg 71%
    14:00 +14°C° 0.2 mm 5 mps 760 mmHg 71%
    15:00 +14°C° 0.2 mm 4 mps 761 mmHg 71%
    16:00 +13°C° 0.2 mm 4 mps 761 mmHg 71%
    17:00 +13°C° 0.2 mm 3 mps 762 mmHg 72%
    18:00 +13°C° 0.2 mm 3 mps 762 mmHg 72%
    19:00 +13°C° 0.1 mm 3 mps 762 mmHg 73%
    20:00 +13°C° 0.1 mm 3 mps 763 mmHg 74%
    21:00 +12°C° 0.1 mm 3 mps 763 mmHg 74%
    22:00 +12°C° 0 mm 3 mps 764 mmHg 75%
    23:00 +12°C° 0 mm 3 mps 764 mmHg 75%

    Tomorrow, 26 September, Wednesday

    Time Temperature Precipitation Wind Pressure Humidity
    00:00 +11°C° 0 mm 3 mps 764 mmHg 76%
    01:00 +11°C° 0 mm 3 mps 765 mmHg 77%
    02:00 +10°C° 0 mm 3 mps 765 mmHg 78%
    03:00 +10°C° 0 mm 2 mps 765 mmHg 79%
    04:00 +9°C° 0 mm 2 mps 765 mmHg 80%
    05:00 +9°C° 0 mm 2 mps 766 mmHg 82%
    06:00 +9°C° 0 mm 2 mps 766 mmHg 83%
    07:00 +10°C° 0 mm 3 mps 767 mmHg 77%
    08:00 +11°C° 0 mm 3 mps 767 mmHg 71%
    09:00 +13°C° 0 mm 3 mps 768 mmHg 65%
    10:00 +14°C° 0 mm 3 mps 768 mmHg 60%
    11:00 +14°C° 0 mm 3 mps 768 mmHg 54%
    12:00 +16°C° 0 mm 3 mps 768 mmHg 49%
    13:00 +17°C° 0.1 mm 3 mps 768 mmHg 48%
    14:00 +17°C° 0.1 mm 3 mps 768 mmHg 46%
    15:00 +17°C° 0.1 mm 3 mps 768 mmHg 45%
    16:00 +16°C° 0.1 mm 3 mps 768 mmHg 47%
    17:00 +16°C° 0.1 mm 3 mps 769 mmHg 49%
    18:00 +15°C° 0.1 mm 2 mps 769 mmHg 52%
    19:00 +14°C° 0 mm 2 mps 769 mmHg 54%
    20:00 +14°C° 0 mm 2 mps 770 mmHg 56%
    21:00 +13°C° 0 mm 2 mps 770 mmHg 59%
    22:00 +12°C° 0 mm 2 mps 770 mmHg 59%
    23:00 +12°C° 0 mm 2 mps 770 mmHg 60%

    Day after tomorrow, 27 September, Thursday

    Time Temperature Precipitation Wind Pressure Humidity
    00:00 +10°C° 0 mm 2 mps 771 mmHg 60%
    01:00 +10°C° 0 mm 2 mps 771 mmHg 61%
    02:00 +9°C° 0 mm 2 mps 771 mmHg 61%
    03:00 +9°C° 0 mm 2 mps 771 mmHg 61%
    04:00 +9°C° 0 mm 2 mps 771 mmHg 62%
    05:00 +9°C° 0 mm 1 mps 771 mmHg 62%
    06:00 +9°C° 0 mm 1 mps 771 mmHg 63%
    07:00 +11°C° 0 mm 1 mps 771 mmHg 57%
    08:00 +12°C° 0 mm 1 mps 771 mmHg 52%
    09:00 +14°C° 0 mm 1 mps 771 mmHg 46%
    10:00 +15°C° 0 mm 2 mps 771 mmHg 43%
    11:00 +16°C° 0 mm 3 mps 770 mmHg 39%
    12:00 +17°C° 0 mm 3 mps 770 mmHg 35%
    13:00 +18°C° 0 mm 4 mps 769 mmHg 33%
    14:00 +18°C° 0 mm 4 mps 769 mmHg 31%
    15:00 +19°C° 0 mm 5 mps 768 mmHg 30%
    16:00 +18°C° 0 mm 4 mps 768 mmHg 32%
    17:00 +17°C° 0 mm 4 mps 768 mmHg 34%
    18:00 +15°C° 0 mm 4 mps 768 mmHg 36%
    19:00 +14°C° 0 mm 3 mps 768 mmHg 39%
    20:00 +13°C° 0 mm 3 mps 768 mmHg 41%
    21:00 +12°C° 0 mm 3 mps 769 mmHg 44%
    22:00 +12°C° 0 mm 3 mps 768 mmHg 45%
    23:00 +12°C° 0 mm 3 mps 768 mmHg 45%

    28 September, Friday

    Time Temperature Precipitation Wind Pressure Humidity
    00:00 +11°C° 0 mm 3 mps 768 mmHg 46%
    01:00 +11°C° 0 mm 3 mps 768 mmHg 45%
    02:00 +11°C° 0 mm 3 mps 768 mmHg 45%
    03:00 +11°C° 0 mm 3 mps 767 mmHg 44%
    04:00 +11°C° 0 mm 3 mps 767 mmHg 45%
    05:00 +12°C° 0 mm 2 mps 767 mmHg 46%
    06:00 +10°C° 0 mm 2 mps 767 mmHg 47%
    07:00 +13°C° 0 mm 2 mps 767 mmHg 45%
    08:00 +15°C° 0 mm 2 mps 768 mmHg 43%
    09:00 +16°C° 0 mm 3 mps 768 mmHg 40%
    10:00 +18°C° 0 mm 3 mps 767 mmHg 39%
    11:00 +19°C° 0 mm 3 mps 767 mmHg 38%
    12:00 +20°C° 0 mm 3 mps 767 mmHg 37%
    13:00 +21°C° 0 mm 3 mps 766 mmHg 36%
    14:00 +21°C° 0 mm 3 mps 766 mmHg 36%
    15:00 +22°C° 0 mm 3 mps 765 mmHg 35%
    16:00 +21°C° 0 mm 3 mps 765 mmHg 38%
    17:00 +20°C° 0 mm 2 mps 765 mmHg 40%
    18:00 +19°C° 0 mm 2 mps 764 mmHg 43%
    19:00 +18°C° 0 mm 2 mps 764 mmHg 44%
    20:00 +18°C° 0 mm 1 mps 764 mmHg 46%
    21:00 +16°C° 0 mm 1 mps 764 mmHg 48%
    22:00 +16°C° 0 mm 1 mps 764 mmHg 49%
    23:00 +15°C° 0 mm 1 mps 764 mmHg 51%

    29 September, Saturday

    Time Temperature Precipitation Wind Pressure Humidity
    00:00 +15°C° 0 mm 1 mps 763 mmHg 53%
    01:00 +15°C° 0 mm 1 mps 763 mmHg 54%
    02:00 +14°C° 0 mm 1 mps 763 mmHg 55%
    03:00 +14°C° 0 mm 1 mps 763 mmHg 56%
    04:00 +14°C° 0 mm 1 mps 763 mmHg 56%
    05:00 +14°C° 0 mm 1 mps 763 mmHg 57%
    06:00 +13°C° 0 mm 1 mps 763 mmHg 57%
    07:00 +15°C° 0 mm 1 mps 762 mmHg 52%
    08:00 +18°C° 0 mm 1 mps 762 mmHg 46%
    09:00 +20°C° 0 mm 1 mps 762 mmHg 41%
    10:00 +21°C° 0 mm 1 mps 762 mmHg 38%
    11:00 +23°C° 0 mm 2 mps 762 mmHg 34%
    12:00 +24°C° 0 mm 2 mps 761 mmHg 31%
    13:00 +25°C° 0 mm 1 mps 761 mmHg 30%
    14:00 +26°C° 0 mm 1 mps 760 mmHg 30%
    15:00 +26°C° 0 mm 1 mps 760 mmHg 29%
    16:00 +25°C° 0 mm 1 mps 760 mmHg 31%
    17:00 +24°C° 0 mm 1 mps 760 mmHg 34%
    18:00 +23°C° 0 mm 1 mps 760 mmHg 36%
    19:00 +23°C° 0 mm 2 mps 760 mmHg 36%
    20:00 +21°C° 0 mm 2 mps 760 mmHg 36%
    21:00 +21°C° 0 mm 2 mps 760 mmHg 36%
    22:00 +20°C° 0 mm 2 mps 760 mmHg 38%
    23:00 +20°C° 0 mm 3 mps 760 mmHg 41%

    30 September, Sunday

    Time Temperature Precipitation Wind Pressure Humidity
    00:00 +19°C° 0 mm 3 mps 760 mmHg 43%
    01:00 +19°C° 0 mm 3 mps 760 mmHg 46%
    02:00 +19°C° 0 mm 3 mps 760 mmHg 50%
    03:00 +18°C° 0 mm 3 mps 760 mmHg 53%
    04:00 +18°C° 0 mm 3 mps 760 mmHg 55%
    05:00 +18°C° 0 mm 3 mps 761 mmHg 56%
    06:00 +18°C° 0 mm 3 mps 761 mmHg 58%
    07:00 +19°C° 0 mm 4 mps 761 mmHg 58%
    08:00 +19°C° 0 mm 5 mps 761 mmHg 58%
    09:00 +20°C° 0 mm 5 mps 762 mmHg 58%
    10:00 +21°C° 0.1 mm 5 mps 762 mmHg 55%
    11:00 +22°C° 0.1 mm 5 mps 762 mmHg 52%
    12:00 +23°C° 0.1 mm 6 mps 762 mmHg 50%
    13:00 +23°C° 0.1 mm 6 mps 762 mmHg 48%
    14:00 +23°C° 0.1 mm 6 mps 762 mmHg 47%
    15:00 +24°C° 0.1 mm 6 mps 762 mmHg 46%
    16:00 +23°C° 0.1 mm 5 mps 762 mmHg 48%
    17:00 +22°C° 0.1 mm 5 mps 762 mmHg 51%
    18:00 +21°C° 0.1 mm 4 mps 762 mmHg 53%
    19:00 +20°C° 0 mm 5 mps 763 mmHg 56%
    20:00 +19°C° 0 mm 5 mps 763 mmHg 59%
    21:00 +17°C° 0 mm 6 mps 763 mmHg 62%
    22:00 +17°C° 0.3 mm 6 mps 763 mmHg 65%
    23:00 +16°C° 0.3 mm 6 mps 763 mmHg 67%
    Show more